Regional Weather Roundup
Issued by NWS

Home | Current Version | Previous Version | Text Only | Print | Product List | Glossary On
Versions: 1 2 3 4 5 6 7 8 9 10 11 12 13 14 15 16 17 18 19 20 21 22 23 24 25 26 27 28 29 30 31 32 33 34 35 36 37 38 39 40 41 42 43 44 45 46 47 48 49 50
000
ASUS43 KMKX 230300
RWRWI

WISCONSIN REGIONAL WEATHER ROUNDUP
NATIONAL WEATHER SERVICE MILWAUKEE/SULLIVAN WI
1000 PM CDT MON SEP 22 2014

NOTE: "FAIR" INDICATES FEW OR NO CLOUDS BELOW 12,000 FEET WITH NO
SIGNIFICANT WEATHER AND/OR OBSTRUCTIONS TO VISIBILITY.

WIZ001-002-006>008-014>016-023>028-230400-
NORTHWEST WISCONSIN

CITY           SKY/WX    TMP DP  RH WIND       PRES   REMARKS
SUPERIOR ARPT  CLEAR     55  51  86 SW5       30.13R
ASHLAND        CLEAR     56  51  84 SW7       30.15R
HAYWARD        CLEAR     50  48  93 CALM      30.17S
SIREN          CLEAR     53  51  92 CALM      30.16S
CUMBERLAND     CLEAR     50  48  93 SW3       30.18S
RICE LAKE      CLEAR     52  50  95 CALM      30.20R FOG
CHETEK         CLEAR     51  50  98 CALM      30.19R FOG
LADYSMITH      CLEAR     51  49  93 CALM      30.20S
EAU CLAIRE     NOT AVBL
MENOMONIE      CLEAR     53  50  89 CALM      30.20R
NEW RICHMOND   CLEAR     53  52  97 S3        30.18S
OSCEOLA        CLEAR     53  53  99 CALM      30.20R
$$

WIZ003>005-009-010-017-018-230400-
NORTH CENTRAL WISCONSIN

CITY           SKY/WX    TMP DP  RH WIND       PRES   REMARKS
MANITOWISH WTR CLEAR     47  47 100 CALM      30.16S
ARBOR VITAE    CLEAR     52  50  93 CALM      30.17S
WOODRUFF       CLEAR     52  50  93 CALM      30.17S
RHINELANDER    CLEAR     50  47  89 W6        30.19S
EAGLE RIVER    FOG       46  46 100 SW3       30.17R VSB 1
LAND O LAKES   CLEAR     45  44  97 CALM      30.17S
PHILLIPS       CLEAR     47  46  93 CALM      30.18S
TOMAHAWK       CLEAR     48  46  93 CALM      30.19S
MEDFORD        CLEAR     52  49  89 SW5       30.20R
MERRILL        CLEAR     49  48  95 CALM      30.19S
$$

WIZ029-030-035-036-043>047-230400-
CENTRAL WISCONSIN

CITY           SKY/WX    TMP DP  RH WIND       PRES   REMARKS
WAUSAU         CLEAR     53  50  89 CALM      30.19R
MOSINEE        NOT AVBL
MARSHFIELD     CLEAR     52  49  89 SW7       30.21R
STEVENS POINT  CLEAR     49  47  94 CALM      30.21S
WAUPACA        CLEAR     54  51  89 CALM      30.21R
WAUTOMA        NOT AVBL
WISC RAPIDS    CLEAR     50  49  96 CALM      30.22S
CAMP DOUGLAS   NOT AVBL
$$

WIZ011>013-019>022-031-037>040-048>050-230400-
NORTHEAST WISCONSIN

CITY           SKY/WX    TMP DP  RH WIND       PRES   REMARKS
ANTIGO         CLEAR     51  48  89 W6        30.20R
SHAWANO        CLEAR     57  50  79 W3        30.19S
OCONTO         CLEAR     49  49 100 CALM      30.17S
STURGEON BAY   CLEAR     55  48  76 SW6       30.18S
GREEN BAY      CLEAR     51  49  92 CALM      30.20R
MANITOWOC      NOT AVBL
APPLETON       CLEAR     54  48  82 W7        30.21R
CLINTONVILLE   CLEAR     50  46  87 CALM      30.20R
OSHKOSH        CLEAR     56  50  80 SW5       30.20S
$$

WIZ032>034-041-042-053>061-230400-
SOUTHWEST WISCONSIN

CITY           SKY/WX    TMP DP  RH WIND       PRES   REMARKS
LA CROSSE      CLEAR     56  52  86 SE6       30.21R
SPARTA         CLEAR     48  48 100 CALM      30.23R
VIROQUA        CLEAR     51  51 100 CALM      30.23R
BOSCOBEL       CLEAR     51  49  92 CALM      30.24R
PRAIRIE DU CHI CLEAR     53  50  89 SE3       30.23R
PLATTEVILLE    CLEAR     56  47  73 S6        30.25R
$$

WIZ056-057-062-063-064-067-068-230400-
SOUTH CENTRAL WISCONSIN

CITY           SKY/WX    TMP DP  RH WIND       PRES   REMARKS
REEDSBURG      CLEAR     51  51  97 CALM      30.22S
BARABOO/DELLS  CLEAR     52  48  87 CALM      30.22S
LONE ROCK      NOT AVBL
MINERAL POINT  CLEAR     57  46  67 S5        30.24R
MADISON        CLEAR     52  49  89 CALM      30.23R
MIDDLETON      CLEAR     51  50  97 CALM      30.24R
WATERTOWN      CLEAR     50  48  94 CALM      30.23R
MONROE         CLEAR     55  46  71 SW8       30.25R
JANESVILLE     CLEAR     54  46  76 CALM      30.24R
$$

WIZ051-052-058>065-066-070>072-230400-
SOUTHEAST WISCONSIN

CITY           SKY/WX    TMP DP  RH WIND       PRES   REMARKS
MILWAUKEE      CLEAR     55  47  74 SE3       30.24R
WAUKESHA       CLEAR     54  45  71 SW6       30.24R
MILWAUKEE/TIMM CLEAR     52  46  82 CALM      30.23R
RACINE         CLEAR     52  49  89 SW3       30.25S
BURLINGTON     CLEAR     47  47  99 SW5       30.24R
KENOSHA        CLEAR     51  47  86 S3        30.24R
FOND DU LAC    CLEAR     55  49  80 SW6       30.22R
SHEBOYGAN      CLEAR     50  48  93 SW3       30.21R
WEST BEND      CLEAR     50  46  87 CALM      30.22R
JUNEAU         CLEAR     54  49  85 CALM      30.24R
$$

LSZ147-162-230400-
LAKE SUPERIOR

STATION/POSITION TIME  TEMP    WIND        PRES    WAVE
                       AIR SEA DIR/SP/G            HT/PER
                 (UTC) (F)     (DEG/KT/KT) (MB)    (FT/S)
W MID LAKE BUOY  0150   53 48  230/ 10/ 12 1018.3R   2/ 4
DEVILS ISLAND    0200   60     230/ 14/ 16 1019.3R
PORT WING        0200   62     200/  7/ 10 1020.0
SAXON HARBOR     0200   57     210/  3/  7 1020.3R
$$

LMZ867-665-643>646-230400-
LAKE MICHIGAN

STATION/POSITION TIME  TEMP    WIND        PRES    WAVE
                       AIR SEA DIR/SP/G            HT/PER
                 (UTC) (F)     (DEG/KT/KT) (MB)    (FT/S)
CHAMBERS ISLAND  0200   60     200/  5/  9 1021.0R
S GREEN BAY BUOY 0100   61                 1022.1R
N MID LAKE BUOY  0150   58 57  220/ 16/ 17 1020.6R   3/ 4
NORTHPORT PIER   0200   57     210/  3/  7 1020.7R
KEWAUNEE LAKESHO 0200   55     250/  1/  2 1021.1R
SHEBOYGAN LAKESH 0200   56 52  200/  4/  5 1023.3R
PORT WASHINGTON  0200   55     260/  2/  3 1023.4S
ATWATER BUOY     0200   58     170/  4/  6 1024.2R
S MID LAKE BUOY  0150   60 62  190/ 12/ 14 1024.0R   1/ 6
KENOSHA   LAKESH 0200   56     190/  5/  6 1023.4R
$$

TC  - TEMPERATURE IN CELSIUS
VSB - VISIBILITY IN STATUTE MILES
WCI - WIND CHILL INDEX
HX  - HEAT INDEX



USA.gov is the U.S. government's official web portal to all federal, state and local government web resources and services.